Regional Weather Roundup
Issued by NWS

Home | Current Version | Previous Version | Text Only | Print | Product List | Glossary Off
Versions: 1 2 3 4 5 6 7 8 9 10 11 12 13 14 15 16 17 18 19 20 21 22 23 24 25 26 27 28 29 30 31 32 33 34 35 36 37 38 39 40 41 42 43 44 45 46 47 48 49 50

000
ASUS45 KCYS 102110
RWRWY

WYOMING REGIONAL WEATHER ROUNDUP
NATIONAL WEATHER SERVICE CHEYENNE WY
200 PM MST WED FEB 10 2016

NOTE:  "FAIR" INDICATES FEW OR NO CLOUDS BELOW 12,000 FEET
WITH NO SIGNIFICANT WEATHER AND/OR OBSTRUCTIONS TO VISIBILITY.

WYZ001-102200-
YELLOWSTONE NATIONAL PARK

CITY           SKY/WX    TMP DP  RH WIND       PRES   REMARKS
LK YELLOWSTONE   N/A     34  19  54 E5        30.34F WCI  30
W YELLOWSTONE  NOT AVBL

$$
WYZ002>013-054>058-071-098>099-102200-
NORTHERN WYOMING

CITY           SKY/WX    TMP DP  RH WIND       PRES   REMARKS
JACKSON        SUNNY     18  18 100 CALM      30.37F
CODY           FAIR      57  16  19 W12G20    30.11S
GREYBULL       NOT AVBL
WORLAND        NOT AVBL
SHERIDAN       PTSUNNY   57  18  21 N15       30.02S
BUFFALO        FAIR      55  25  31 N17G23    30.07R
GILLETTE       FAIR      56  24  29 NW18G32   30.03S
HULETT         FAIR      54  25  32 NW9       30.03R
NEWCASTLE      FAIR      54  19  26 NW20G29   30.00S

$$
WYZ014>020-022>026-101>103-102200-
CENTRAL WYOMING

CITY           SKY/WX    TMP DP  RH WIND       PRES   REMARKS
BIG PINEY      NOT AVBL
PINEDALE       FAIR      41  19  42 NW13      30.32F
DUBOIS         FAIR      50  10  20 N25G32    30.23S
LANDER         NOT AVBL
RIVERTON       NOT AVBL
CASPER         FAIR      41  23  48 S15       30.13S
DOUGLAS        FAIR      54  27  35 NW15        N/A

$$
WYZ021-027>030-104>119-102200-
SOUTHERN WYOMING

CITY           SKY/WX    TMP DP  RH WIND       PRES   REMARKS
EVANSTON       NOT AVBL
KEMMERER       FAIR      36  21  55 W7        30.36F WCI  30
FORT BRIDGER   CLEAR     43  21  42 W18       30.38S
ROCK SPRINGS   NOT AVBL
DIXON          FAIR      34  22  63 CALM      30.36S
RAWLINS        FAIR      39  20  46 SW22      30.23F WCI  29
SARATOGA       FAIR      41  21  45 MISG      30.22F
LARAMIE        FAIR      47  20  34 W24G35    30.14F
CHEYENNE       FAIR      57  16  20 W28G37    30.08F
TORRINGTON     FAIR      61  20  20 W15       30.02S
PINE BLUFFS    FAIR      59  27  29 NW22G28   30.07R

$$



USA.gov is the U.S. government's official web portal to all federal, state and local government web resources and services.